User: anonymous   Login
Location: Unspecified
(0.0000°N, 0.0000°E)
Time: 22:47:09
(UTC+01:00)
Language:

Ariane H10 - Orbit

View from above orbital plane
View from above orbital plane
View from above satellite
View from above satellite

Ground track
Ground track

The orbit data is extracted from the following two-line orbital elements,

1 19622U 88098B   16037.56882565  .00004750  00000-0  10891-2 0  9992
2 19622   3.7314 136.2016 6423886 309.9897   9.2908  3.42147184287235
Epoch (UTC): 06 February 2016 13:39:06
Eccentricity: 0.6423886
inclination: 3.7314°
perigee height: 274 km
apogee height: 24176 km
right ascension of ascending node: 136.2016°
argument of perigee: 309.9897°
revolutions per day: 3.42147184
mean anomaly at epoch: 9.2908°
orbit number at epoch: 28723

The dashed part of the orbit path shows where the satellite is in the earth's shadow,  

DLR